START_TIME,STEP,MOV.,M15,t_acc.,M20,t_acc.
1980-11-14 21:00:32.480 ,5,0,1.,24.0,0.,24.0
1980-11-14 21:00:56.480 ,4,1,0.,24.0,0.,24.0
1980-11-14 21:01:20.480 ,4,0,0.,24.0,0.,24.0
1980-11-14 21:01:44.480 ,3,1,0.,24.0,0.,24.0
1980-11-14 21:02:08.480 ,3,0,0.,24.0,0.,24.0
1980-11-14 21:02:32.480 ,2,1,0.,24.0,0.,24.0
1980-11-14 21:02:56.480 ,2,0,0.,24.0,0.,24.0
1980-11-14 21:03:20.480 ,1,1,0.,24.0,0.,24.0
1980-11-14 21:03:44.480 ,1,0,0.,24.0,0.,24.0
1980-11-14 21:04:08.480 ,0,1,0.,24.0,0.,24.0
1980-11-14 21:04:32.480 ,0,0,0.,24.0,0.,24.0
1980-11-14 21:04:56.480 ,0,1,0.,24.0,0.,24.0
1980-11-14 21:05:20.480 ,0,0,0.,24.0,0.,24.0
1980-11-14 21:05:44.480 ,1,1,0.,24.0,0.,24.0
1980-11-14 21:06:08.480 ,1,0,0.,24.0,0.,24.0
1980-11-14 21:06:32.480 ,2,1,0.,24.0,0.,24.0
1980-11-14 21:06:56.480 ,2,0,0.,24.0,0.,24.0
1980-11-14 21:07:20.480 ,3,1,0.,24.0,0.,24.0
1980-11-14 21:07:44.480 ,3,0,0.,24.0,0.,24.0
1980-11-14 21:08:08.480 ,4,1,0.,24.0,0.,24.0
1980-11-14 21:08:32.480 ,4,0,0.,24.0,0.,24.0
1980-11-14 21:08:56.480 ,5,1,0.,24.0,0.,24.0
1980-11-14 21:09:20.480 ,5,0,0.,24.0,0.,24.0
1980-11-14 21:09:44.480 ,6,1,0.,24.0,0.,24.0
1980-11-14 21:10:08.480 ,6,0,0.,24.0,0.,24.0
1980-11-14 21:10:32.480 ,7,1,0.,24.0,0.,24.0
1980-11-14 21:10:56.480 ,7,0,0.,24.0,0.,24.0
1980-11-14 21:11:20.480 ,7,1,0.,24.0,0.,24.0
1980-11-14 21:11:44.480 ,7,0,0.,24.0,0.,24.0
1980-11-14 21:12:08.480 ,6,1,0.,24.0,0.,24.0
1980-11-14 21:12:32.480 ,6,0,0.,24.0,0.,24.0
1980-11-14 21:12:56.480 ,5,1,0.,24.0,0.,24.0
1980-11-14 21:13:20.480 ,5,0,0.,24.0,0.,24.0
1980-11-14 21:13:44.480 ,4,1,0.,24.0,0.,24.0
1980-11-14 21:14:08.480 ,4,0,0.,24.0,0.,24.0
1980-11-14 21:14:32.480 ,3,1,0.,24.0,0.,24.0
1980-11-14 21:14:56.480 ,3,0,0.,24.0,0.,24.0
1980-11-14 21:15:20.480 ,2,1,0.,24.0,0.,24.0
1980-11-14 21:15:44.480 ,2,0,0.,24.0,0.,24.0
1980-11-14 21:16:08.480 ,1,1,0.,24.0,0.,24.0
1980-11-14 21:16:32.480 ,1,0,0.,24.0,0.,24.0
1980-11-14 21:16:56.480 ,0,1,0.,24.0,0.,24.0
1980-11-14 21:17:20.480 ,0,0,0.,24.0,0.,24.0
1980-11-14 21:17:44.480 ,0,1,0.,24.0,0.,24.0
1980-11-14 21:18:08.480 ,0,0,0.,24.0,0.,24.0
1980-11-14 21:18:32.480 ,1,1,0.,24.0,0.,24.0
1980-11-14 21:18:56.480 ,1,0,0.,24.0,0.,24.0
1980-11-14 21:19:20.480 ,2,1,0.,24.0,0.,24.0
1980-11-14 21:19:44.480 ,2,0,0.,24.0,0.,24.0
1980-11-14 21:20:56.480 ,0,0,0.,24.0,0.,24.0
1980-11-14 21:21:20.480 ,0,0,0.,24.0,0.,24.0
1980-11-14 21:21:44.480 ,5,1,0.,24.0,0.,24.0
1980-11-14 21:22:08.480 ,5,0,0.,24.0,0.,24.0
1980-11-14 21:22:32.480 ,6,1,0.,24.0,0.,24.0
1980-11-14 21:22:56.480 ,6,0,0.,24.0,0.,24.0
1980-11-14 21:23:20.480 ,7,1,0.,24.0,0.,24.0
1980-11-14 21:23:44.480 ,7,0,0.,24.0,0.,24.0
1980-11-14 21:24:08.480 ,7,1,0.,24.0,0.,24.0
1980-11-14 21:24:32.480 ,7,0,0.,24.0,0.,24.0
1980-11-14 21:24:56.480 ,6,1,0.,24.0,0.,24.0
1980-11-14 21:25:20.480 ,6,0,0.,24.0,0.,24.0
1980-11-14 21:25:44.480 ,5,1,0.,24.0,0.,24.0
1980-11-14 21:26:08.480 ,5,0,0.,24.0,0.,24.0
1980-11-14 21:26:32.480 ,4,1,0.,24.0,0.,24.0
1980-11-14 21:26:56.480 ,4,0,0.,24.0,0.,24.0
1980-11-14 21:27:20.480 ,3,1,0.,24.0,0.,24.0
1980-11-14 21:27:44.480 ,3,0,0.,24.0,0.,24.0
1980-11-14 21:28:08.480 ,2,1,0.,24.0,0.,24.0
1980-11-14 21:28:32.480 ,2,0,0.,24.0,0.,24.0
1980-11-14 21:28:56.480 ,1,1,0.,24.0,0.,24.0
1980-11-14 21:29:20.480 ,1,0,0.,24.0,0.,24.0
1980-11-14 21:29:44.480 ,0,1,0.,24.0,0.,24.0
1980-11-14 21:30:08.480 ,0,0,0.,24.0,0.,24.0
1980-11-14 21:30:32.480 ,0,1,0.,24.0,0.,24.0
1980-11-14 21:30:56.480 ,0,0,1.,24.0,0.,24.0
1980-11-14 21:31:20.480 ,1,1,0.,24.0,0.,24.0
1980-11-14 21:31:44.480 ,1,0,0.,24.0,0.,24.0
1980-11-14 21:32:08.480 ,2,1,0.,24.0,0.,24.0
1980-11-14 21:32:32.480 ,2,0,0.,24.0,0.,24.0
1980-11-14 21:32:56.480 ,3,1,0.,24.0,0.,24.0
1980-11-14 21:33:20.480 ,3,0,0.,24.0,0.,24.0
1980-11-14 21:33:44.480 ,4,1,0.,24.0,0.,24.0
1980-11-14 21:34:08.480 ,4,0,0.,24.0,0.,24.0
1980-11-14 21:34:32.480 ,0,0,0.,24.0,0.,24.0
1980-11-14 21:34:56.480 ,0,0,,0,,0
1980-11-14 21:36:08.480 ,0,0,0.,24.0,0.,24.0
1980-11-14 21:36:32.480 ,0,0,0.,24.0,0.,24.0
1980-11-14 21:36:56.480 ,7,1,0.,24.0,0.,24.0
1980-11-14 21:37:20.480 ,7,0,0.,24.0,0.,24.0
1980-11-14 21:37:44.480 ,6,1,0.,24.0,0.,24.0
1980-11-14 21:38:08.480 ,6,0,0.,24.0,0.,24.0
1980-11-14 21:38:32.480 ,5,1,0.,24.0,0.,24.0
1980-11-14 21:38:56.480 ,5,0,0.,24.0,0.,24.0
1980-11-14 21:39:20.480 ,4,1,0.,24.0,0.,24.0
1980-11-14 21:39:44.480 ,4,0,0.,24.0,0.,24.0
1980-11-14 21:40:08.480 ,3,1,0.,24.0,0.,24.0
1980-11-14 21:40:32.480 ,3,0,0.,24.0,0.,24.0
1980-11-14 21:40:56.480 ,2,1,0.,24.0,0.,24.0
1980-11-14 21:41:20.480 ,2,0,0.,24.0,0.,24.0
1980-11-14 21:41:44.480 ,1,1,0.,24.0,0.,24.0
1980-11-14 21:42:08.480 ,1,0,0.,24.0,0.,24.0
1980-11-14 21:42:32.480 ,0,1,0.,24.0,0.,24.0
1980-11-14 21:42:56.480 ,0,0,0.,24.0,0.,24.0
1980-11-14 21:43:20.480 ,0,1,0.,24.0,0.,24.0
1980-11-14 21:43:44.480 ,0,0,0.,24.0,0.,24.0
1980-11-14 21:44:08.480 ,1,1,0.,24.0,0.,24.0
1980-11-14 21:44:32.480 ,1,0,0.,24.0,0.,24.0
1980-11-14 21:44:56.480 ,2,1,0.,24.0,0.,24.0
1980-11-14 21:45:20.480 ,2,0,0.,24.0,0.,24.0
1980-11-14 21:45:44.480 ,3,1,0.,24.0,0.,24.0
1980-11-14 21:46:08.480 ,3,0,0.,24.0,0.,24.0
1980-11-14 21:46:32.480 ,4,1,0.,24.0,0.,24.0
1980-11-14 21:46:56.480 ,4,0,0.,24.0,0.,24.0
1980-11-14 21:47:20.480 ,5,1,0.,24.0,0.,24.0
1980-11-14 21:47:44.480 ,5,0,0.,24.0,0.,24.0
1980-11-14 21:48:08.480 ,6,1,0.,24.0,0.,24.0
1980-11-14 21:48:32.480 ,6,0,0.,24.0,0.,24.0
1980-11-14 21:48:56.480 ,7,1,0.,24.0,0.,24.0
1980-11-14 21:49:20.480 ,7,0,0.,24.0,0.,24.0
1980-11-14 21:49:44.480 ,7,1,0.,24.0,0.,24.0
1980-11-14 21:50:08.480 ,7,0,0.,24.0,0.,24.0
1980-11-14 21:50:32.480 ,6,1,0.,24.0,0.,24.0
1980-11-14 21:50:56.480 ,6,0,0.,24.0,0.,24.0
1980-11-14 21:51:20.480 ,5,1,0.,24.0,0.,24.0
1980-11-14 21:51:44.480 ,5,0,0.,24.0,0.,24.0
1980-11-14 21:52:08.480 ,4,1,0.,24.0,0.,24.0
1980-11-14 21:52:32.480 ,4,0,0.,24.0,0.,24.0
1980-11-14 21:52:56.480 ,3,1,0.,24.0,0.,24.0
1980-11-14 21:53:20.480 ,3,0,0.,24.0,0.,24.0
1980-11-14 21:53:44.480 ,2,1,0.,24.0,0.,24.0
1980-11-14 21:54:08.480 ,2,0,0.,24.0,0.,24.0
1980-11-14 21:54:32.480 ,1,1,0.,24.0,0.,24.0
1980-11-14 21:54:56.480 ,1,0,0.,24.0,0.,24.0
1980-11-14 21:55:20.480 ,0,1,0.,24.0,0.,24.0
1980-11-14 21:55:44.480 ,0,0,0.,24.0,0.,24.0
1980-11-14 21:56:08.480 ,0,1,0.,24.0,0.,24.0
1980-11-14 21:56:32.480 ,0,0,0.,24.0,0.,24.0
1980-11-14 21:56:56.480 ,1,1,0.,24.0,0.,24.0
1980-11-14 21:57:20.480 ,1,0,0.,24.0,0.,24.0
1980-11-14 21:57:44.480 ,2,1,0.,24.0,0.,24.0
1980-11-14 21:58:08.480 ,2,0,0.,24.0,0.,24.0
1980-11-14 21:58:32.480 ,3,1,0.,24.0,0.,24.0
1980-11-14 21:58:56.480 ,3,0,0.,24.0,0.,24.0
1980-11-14 21:59:20.480 ,4,1,0.,24.0,0.,24.0
1980-11-14 21:59:44.480 ,4,0,0.,24.0,0.,24.0
1980-11-14 22:00:08.480 ,5,1,0.,24.0,0.,24.0
1980-11-14 22:00:32.480 ,5,0,0.,24.0,0.,24.0
1980-11-14 22:00:56.480 ,6,1,0.,24.0,0.,24.0
1980-11-14 22:01:20.480 ,6,0,0.,24.0,0.,24.0
1980-11-14 22:01:44.480 ,7,1,0.,24.0,0.,24.0
1980-11-14 22:02:08.480 ,7,0,0.,24.0,0.,24.0
1980-11-14 22:02:32.480 ,7,1,0.,24.0,0.,24.0
1980-11-14 22:02:56.480 ,7,0,0.,24.0,0.,24.0
1980-11-14 22:03:20.480 ,6,1,0.,24.0,0.,24.0
1980-11-14 22:03:44.480 ,6,0,0.,24.0,0.,24.0
1980-11-14 22:04:08.480 ,5,1,0.,24.0,0.,24.0
1980-11-14 22:04:32.480 ,5,0,0.,24.0,0.,24.0
1980-11-14 22:04:56.480 ,4,1,0.,24.0,0.,24.0
1980-11-14 22:05:20.480 ,4,0,0.,24.0,0.,24.0
1980-11-14 22:05:44.480 ,3,1,0.,24.0,0.,24.0
1980-11-14 22:06:08.480 ,3,0,0.,24.0,0.,24.0
1980-11-14 22:06:32.480 ,2,1,0.,24.0,0.,24.0
1980-11-14 22:06:56.480 ,2,0,0.,24.0,0.,24.0
1980-11-14 22:07:20.480 ,1,1,0.,24.0,0.,24.0
1980-11-14 22:07:44.480 ,1,0,0.,24.0,0.,24.0
1980-11-14 22:08:08.480 ,0,1,0.,24.0,0.,24.0
1980-11-14 22:08:32.480 ,0,0,0.,24.0,0.,24.0
1980-11-14 22:08:56.480 ,0,1,0.,24.0,0.,24.0
1980-11-14 22:09:20.480 ,0,0,0.,24.0,0.,24.0
1980-11-14 22:09:44.480 ,1,1,0.,24.0,0.,24.0
1980-11-14 22:10:08.480 ,1,0,0.,24.0,0.,24.0
1980-11-14 22:10:32.480 ,2,1,0.,24.0,0.,24.0
1980-11-14 22:10:56.480 ,2,0,0.,24.0,0.,24.0
1980-11-14 22:11:20.480 ,3,1,0.,24.0,0.,24.0
1980-11-14 22:11:44.480 ,3,0,0.,24.0,0.,24.0
1980-11-14 22:12:08.480 ,4,1,0.,24.0,0.,24.0
1980-11-14 22:12:32.480 ,4,0,0.,24.0,0.,24.0
1980-11-14 22:12:56.480 ,5,1,0.,24.0,0.,24.0
1980-11-14 22:13:20.480 ,5,0,0.,24.0,0.,24.0
1980-11-14 22:13:44.480 ,6,1,0.,24.0,0.,24.0
1980-11-14 22:14:08.480 ,6,0,0.,24.0,0.,24.0
1980-11-14 22:14:32.480 ,7,1,0.,24.0,0.,24.0
1980-11-14 22:14:56.480 ,7,0,0.,24.0,0.,24.0
1980-11-14 22:15:20.480 ,7,1,0.,24.0,0.,24.0
1980-11-14 22:15:44.480 ,7,0,0.,24.0,0.,24.0
1980-11-14 22:16:08.480 ,6,1,0.,24.0,0.,24.0
1980-11-14 22:16:32.480 ,6,0,0.,24.0,0.,24.0
1980-11-14 22:16:56.480 ,5,1,0.,24.0,0.,24.0
1980-11-14 22:17:20.480 ,5,0,0.,24.0,0.,24.0
1980-11-14 22:17:44.480 ,4,1,0.,24.0,0.,24.0
1980-11-14 22:18:08.480 ,4,0,0.,24.0,0.,24.0
1980-11-14 22:18:32.480 ,3,1,0.,24.0,0.,24.0
1980-11-14 22:18:56.480 ,3,0,0.,24.0,0.,24.0
1980-11-14 22:19:20.480 ,2,1,0.,24.0,0.,24.0
1980-11-14 22:19:44.480 ,2,0,0.,24.0,0.,24.0
1980-11-14 22:20:08.480 ,1,1,0.,24.0,0.,24.0
1980-11-14 22:20:32.480 ,1,0,0.,24.0,0.,24.0
1980-11-14 22:20:56.480 ,0,1,0.,24.0,0.,24.0
1980-11-14 22:21:20.480 ,0,0,0.,24.0,0.,24.0
1980-11-14 22:21:44.480 ,0,1,0.,24.0,0.,24.0
1980-11-14 22:22:08.480 ,0,0,0.,24.0,0.,24.0
1980-11-14 22:22:32.480 ,1,1,0.,24.0,0.,24.0
1980-11-14 22:22:56.480 ,1,0,0.,24.0,0.,24.0
1980-11-14 22:23:20.480 ,2,1,0.,24.0,0.,24.0
1980-11-14 22:23:44.480 ,2,0,0.,24.0,0.,24.0
1980-11-14 22:24:08.480 ,3,1,0.,24.0,0.,24.0
1980-11-14 22:24:32.480 ,3,0,0.,24.0,0.,24.0
1980-11-14 22:24:56.480 ,4,1,0.,24.0,0.,24.0
1980-11-14 22:25:20.480 ,4,0,0.,24.0,0.,24.0
1980-11-14 22:25:44.480 ,5,1,0.,24.0,0.,24.0
1980-11-14 22:26:08.480 ,5,0,0.,24.0,0.,24.0
1980-11-14 22:26:32.480 ,6,1,0.,24.0,0.,24.0
1980-11-14 22:26:56.480 ,6,0,0.,24.0,0.,24.0
1980-11-14 22:27:20.480 ,7,1,0.,24.0,0.,24.0
1980-11-14 22:27:44.480 ,7,0,0.,24.0,0.,24.0
1980-11-14 22:28:08.480 ,7,1,0.,24.0,0.,24.0
1980-11-14 22:28:32.480 ,7,0,0.,24.0,0.,24.0
1980-11-14 22:28:56.480 ,6,1,0.,24.0,0.,24.0
1980-11-14 22:29:20.480 ,6,0,0.,24.0,0.,24.0
1980-11-14 22:29:44.480 ,5,1,0.,24.0,0.,24.0
1980-11-14 22:30:08.480 ,5,0,0.,24.0,0.,24.0
1980-11-14 22:30:32.480 ,4,1,0.,24.0,0.,24.0
1980-11-14 22:30:56.480 ,4,0,0.,24.0,0.,24.0
1980-11-14 22:31:20.480 ,3,1,0.,24.0,0.,24.0
1980-11-14 22:31:44.480 ,3,0,0.,24.0,0.,24.0
1980-11-14 22:32:08.480 ,2,1,0.,24.0,0.,24.0
1980-11-14 22:32:32.480 ,2,0,0.,24.0,0.,24.0
1980-11-14 22:32:56.480 ,1,1,0.,24.0,0.,24.0
1980-11-14 22:33:20.480 ,1,0,0.,24.0,0.,24.0
1980-11-14 22:33:44.480 ,0,1,0.,24.0,0.,24.0
1980-11-14 22:34:08.480 ,0,0,0.,24.0,0.,24.0
1980-11-14 22:34:32.480 ,0,1,0.,24.0,0.,24.0
1980-11-14 22:34:56.480 ,0,0,0.,24.0,0.,24.0
1980-11-14 22:35:20.480 ,1,1,0.,24.0,0.,24.0
1980-11-14 22:35:44.480 ,1,0,0.,24.0,0.,24.0
1980-11-14 22:36:08.480 ,2,1,0.,24.0,0.,24.0
1980-11-14 22:36:32.480 ,2,0,0.,24.0,0.,24.0
1980-11-14 22:36:56.480 ,3,1,0.,24.0,0.,24.0
1980-11-14 22:37:20.480 ,3,0,0.,24.0,0.,24.0
1980-11-14 22:37:44.480 ,4,1,0.,24.0,0.,24.0
1980-11-14 22:38:08.480 ,4,0,0.,24.0,0.,24.0
1980-11-14 22:38:32.480 ,5,1,0.,24.0,0.,24.0
1980-11-14 22:38:56.480 ,5,0,0.,24.0,0.,24.0
1980-11-14 22:39:20.480 ,6,1,0.,24.0,0.,24.0
1980-11-14 22:39:44.480 ,6,0,0.,24.0,0.,24.0
1980-11-14 22:40:08.480 ,7,1,0.,24.0,0.,24.0
1980-11-14 22:40:32.480 ,7,0,0.,24.0,0.,24.0
1980-11-14 22:40:56.480 ,7,1,0.,24.0,0.,24.0
1980-11-14 22:41:20.480 ,7,0,0.,24.0,0.,24.0
1980-11-14 22:41:44.480 ,6,1,0.,24.0,0.,24.0
1980-11-14 22:42:08.480 ,6,0,0.,24.0,0.,24.0
1980-11-14 22:42:32.480 ,5,1,0.,24.0,0.,24.0
1980-11-14 22:42:56.480 ,5,0,0.,24.0,0.,24.0
1980-11-14 22:43:20.480 ,4,1,0.,24.0,0.,24.0
1980-11-14 22:43:44.480 ,4,0,0.,24.0,0.,24.0
1980-11-14 22:44:08.480 ,3,1,0.,24.0,0.,24.0
1980-11-14 22:44:32.480 ,3,0,0.,24.0,0.,24.0
1980-11-14 22:44:56.480 ,2,1,0.,24.0,0.,24.0
1980-11-14 22:45:20.480 ,2,0,0.,24.0,0.,24.0
1980-11-14 22:45:44.480 ,1,1,0.,24.0,0.,24.0
1980-11-14 22:46:08.480 ,1,0,0.,24.0,0.,24.0
1980-11-14 22:46:32.480 ,0,1,0.,24.0,0.,24.0
1980-11-14 22:46:56.480 ,0,0,0.,24.0,0.,24.0
1980-11-14 22:47:20.480 ,0,1,0.,24.0,0.,24.0
1980-11-14 22:47:44.480 ,0,0,0.,24.0,0.,24.0
1980-11-14 22:48:08.480 ,1,1,0.,24.0,0.,24.0
1980-11-14 22:48:32.480 ,1,0,0.,24.0,0.,24.0
1980-11-14 22:48:56.480 ,2,1,0.,24.0,0.,24.0
1980-11-14 22:49:20.480 ,2,0,0.,24.0,0.,24.0
1980-11-14 22:49:44.480 ,3,1,0.,24.0,0.,24.0
1980-11-14 22:50:08.480 ,3,0,0.,24.0,0.,24.0
1980-11-14 22:50:32.480 ,4,1,0.,24.0,0.,24.0
1980-11-14 22:50:56.480 ,4,0,0.,24.0,0.,24.0
1980-11-14 22:51:20.480 ,5,1,0.,24.0,0.,24.0
1980-11-14 22:51:44.480 ,5,0,0.,24.0,0.,24.0
1980-11-14 22:52:08.480 ,6,1,0.,24.0,0.,24.0
1980-11-14 22:52:32.480 ,6,0,1.,24.0,0.,24.0
1980-11-14 22:52:56.480 ,7,1,0.,24.0,0.,24.0
1980-11-14 22:53:20.480 ,7,0,0.,24.0,0.,24.0
1980-11-14 22:53:44.480 ,7,1,0.,24.0,0.,24.0
1980-11-14 22:54:08.480 ,7,0,0.,24.0,0.,24.0
1980-11-14 22:54:32.480 ,6,1,0.,24.0,0.,24.0
1980-11-14 22:54:56.480 ,6,0,0.,24.0,0.,24.0
1980-11-14 22:55:20.480 ,5,1,0.,24.0,0.,24.0
1980-11-14 22:55:44.480 ,5,0,0.,24.0,0.,24.0
1980-11-14 22:56:08.480 ,4,1,0.,24.0,0.,24.0
1980-11-14 22:56:32.480 ,4,0,0.,24.0,0.,24.0
1980-11-14 22:56:56.480 ,3,1,0.,24.0,0.,24.0
1980-11-14 22:57:20.480 ,3,0,0.,24.0,0.,24.0
1980-11-14 22:57:44.480 ,2,1,0.,24.0,0.,24.0
1980-11-14 22:58:08.480 ,2,0,0.,24.0,0.,24.0
1980-11-14 22:58:32.480 ,1,1,0.,24.0,0.,24.0
1980-11-14 22:58:56.480 ,1,0,0.,24.0,0.,24.0
1980-11-14 22:59:20.480 ,0,1,0.,24.0,0.,24.0
1980-11-14 22:59:44.480 ,0,0,0.,24.0,0.,24.0
1980-11-14 23:00:08.480 ,0,1,0.,24.0,0.,24.0
1980-11-14 23:00:32.480 ,0,0,0.,24.0,0.,24.0
1980-11-14 23:00:56.480 ,1,1,0.,24.0,0.,24.0
1980-11-14 23:01:20.480 ,1,0,0.,24.0,0.,24.0
1980-11-14 23:01:44.480 ,2,1,0.,24.0,0.,24.0
1980-11-14 23:02:08.480 ,2,0,0.,24.0,0.,24.0
1980-11-14 23:02:32.480 ,3,1,0.,24.0,0.,24.0
1980-11-14 23:02:56.480 ,3,0,0.,24.0,0.,24.0
1980-11-14 23:03:20.480 ,4,1,0.,24.0,0.,24.0
1980-11-14 23:03:44.480 ,4,0,0.,24.0,0.,24.0
1980-11-14 23:04:08.480 ,5,1,0.,24.0,0.,24.0
1980-11-14 23:04:32.480 ,5,0,0.,24.0,0.,24.0
1980-11-14 23:04:56.480 ,6,1,0.,24.0,0.,24.0
1980-11-14 23:05:20.480 ,6,0,0.,24.0,0.,24.0
1980-11-14 23:05:44.480 ,7,1,0.,24.0,0.,24.0
1980-11-14 23:06:08.480 ,7,0,0.,24.0,0.,24.0
1980-11-14 23:06:32.480 ,7,1,0.,24.0,0.,24.0
1980-11-14 23:06:56.480 ,7,0,0.,24.0,0.,24.0
1980-11-14 23:07:20.480 ,6,1,0.,24.0,0.,24.0
1980-11-14 23:07:44.480 ,6,0,0.,24.0,0.,24.0
1980-11-14 23:08:08.480 ,5,1,0.,24.0,0.,24.0
1980-11-14 23:08:32.480 ,5,0,0.,24.0,0.,24.0
1980-11-14 23:08:56.480 ,4,1,0.,24.0,0.,24.0
1980-11-14 23:09:20.480 ,4,0,0.,24.0,0.,24.0
1980-11-14 23:09:44.480 ,3,1,0.,24.0,0.,24.0
1980-11-14 23:10:08.480 ,3,0,0.,24.0,0.,24.0
1980-11-14 23:10:32.480 ,2,1,0.,24.0,0.,24.0
1980-11-14 23:10:56.480 ,2,0,0.,24.0,0.,24.0
1980-11-14 23:11:20.480 ,1,1,0.,24.0,0.,24.0
1980-11-14 23:11:44.480 ,1,0,0.,24.0,0.,24.0
1980-11-14 23:12:08.480 ,0,1,0.,24.0,0.,24.0
1980-11-14 23:12:32.480 ,0,0,0.,24.0,0.,24.0
1980-11-14 23:12:56.480 ,0,1,0.,24.0,0.,24.0
1980-11-14 23:13:20.480 ,0,0,0.,24.0,0.,24.0
1980-11-14 23:13:44.480 ,1,1,0.,24.0,0.,24.0
1980-11-14 23:14:08.480 ,1,0,0.,24.0,0.,24.0
1980-11-14 23:14:32.480 ,2,1,0.,24.0,0.,24.0
1980-11-14 23:14:56.480 ,2,0,0.,24.0,0.,24.0
1980-11-14 23:15:20.480 ,3,1,0.,24.0,0.,24.0
1980-11-14 23:15:44.480 ,3,0,0.,24.0,0.,24.0
1980-11-14 23:16:08.480 ,4,1,0.,24.0,0.,24.0
1980-11-14 23:16:32.480 ,4,0,0.,24.0,0.,24.0
1980-11-14 23:16:56.480 ,5,1,0.,24.0,0.,24.0
1980-11-14 23:17:20.480 ,5,0,0.,24.0,0.,24.0
1980-11-14 23:17:44.480 ,6,1,0.,24.0,0.,24.0
1980-11-14 23:18:08.480 ,6,0,0.,24.0,0.,24.0
1980-11-14 23:18:32.480 ,7,1,0.,24.0,0.,24.0
1980-11-14 23:18:56.480 ,7,0,0.,24.0,0.,24.0
1980-11-14 23:19:20.480 ,7,1,0.,24.0,0.,24.0
1980-11-14 23:19:44.480 ,7,0,0.,24.0,0.,24.0
1980-11-14 23:20:08.480 ,6,1,0.,24.0,0.,24.0
1980-11-14 23:20:32.480 ,6,0,0.,24.0,0.,24.0
1980-11-14 23:20:56.480 ,5,1,0.,24.0,0.,24.0
1980-11-14 23:21:20.480 ,5,0,0.,24.0,0.,24.0
1980-11-14 23:21:44.480 ,4,1,0.,24.0,0.,24.0
1980-11-14 23:22:08.480 ,4,0,0.,24.0,0.,24.0
1980-11-14 23:22:32.480 ,3,1,0.,24.0,0.,24.0
1980-11-14 23:22:56.480 ,3,0,0.,24.0,0.,24.0
1980-11-14 23:23:20.480 ,2,1,0.,24.0,0.,24.0
1980-11-14 23:23:44.480 ,2,0,0.,24.0,0.,24.0
1980-11-14 23:24:08.480 ,1,1,0.,24.0,0.,24.0
1980-11-14 23:24:32.480 ,1,0,0.,24.0,0.,24.0
1980-11-14 23:24:56.480 ,0,1,0.,24.0,0.,24.0
1980-11-14 23:25:20.480 ,0,0,0.,24.0,0.,24.0
1980-11-14 23:25:44.480 ,0,1,0.,24.0,0.,24.0
1980-11-14 23:26:08.480 ,0,0,0.,24.0,0.,24.0
1980-11-14 23:26:32.480 ,1,1,0.,24.0,0.,24.0
1980-11-14 23:26:56.480 ,1,0,0.,24.0,0.,24.0
1980-11-14 23:27:20.480 ,2,1,0.,24.0,0.,24.0
1980-11-14 23:27:44.480 ,2,0,0.,24.0,0.,24.0
1980-11-14 23:28:08.480 ,3,1,0.,24.0,0.,24.0
1980-11-14 23:28:32.480 ,3,0,0.,24.0,0.,24.0
1980-11-14 23:28:56.480 ,4,1,0.,24.0,0.,24.0
1980-11-14 23:29:20.480 ,4,0,0.,24.0,0.,24.0
1980-11-14 23:29:44.480 ,5,1,0.,24.0,0.,24.0
1980-11-14 23:30:08.480 ,5,0,0.,24.0,0.,24.0
1980-11-14 23:30:32.480 ,6,1,0.,24.0,0.,24.0
1980-11-14 23:30:56.480 ,6,0,0.,24.0,0.,24.0
1980-11-14 23:31:20.480 ,7,1,0.,24.0,0.,24.0
1980-11-14 23:31:44.480 ,7,0,0.,24.0,0.,24.0
1980-11-14 23:32:08.480 ,7,1,0.,24.0,0.,24.0
1980-11-14 23:32:32.480 ,7,0,0.,24.0,0.,24.0
1980-11-14 23:32:56.480 ,6,1,0.,24.0,0.,24.0
1980-11-14 23:33:20.480 ,6,0,0.,24.0,0.,24.0
1980-11-14 23:33:44.480 ,5,1,0.,24.0,0.,24.0
1980-11-14 23:34:08.480 ,5,0,0.,24.0,0.,24.0
1980-11-14 23:34:32.480 ,4,1,0.,24.0,0.,24.0
1980-11-14 23:34:56.480 ,4,0,0.,24.0,0.,24.0
1980-11-14 23:35:20.480 ,3,1,0.,24.0,0.,24.0
1980-11-14 23:35:44.480 ,3,0,0.,24.0,0.,24.0
1980-11-14 23:36:08.480 ,2,1,0.,24.0,0.,24.0
1980-11-14 23:36:32.480 ,2,0,0.,24.0,0.,24.0
1980-11-14 23:36:56.480 ,1,1,0.,24.0,0.,24.0
1980-11-14 23:37:20.480 ,1,0,0.,24.0,0.,24.0
1980-11-14 23:37:44.480 ,0,1,0.,24.0,0.,24.0
1980-11-14 23:38:08.480 ,0,0,0.,24.0,0.,24.0
1980-11-14 23:38:32.480 ,0,1,0.,24.0,0.,24.0
1980-11-14 23:38:56.480 ,0,0,0.,24.0,0.,24.0
1980-11-14 23:39:20.480 ,1,1,0.,24.0,0.,24.0
1980-11-14 23:39:44.480 ,1,0,0.,24.0,0.,24.0
1980-11-14 23:40:08.480 ,2,1,0.,24.0,0.,24.0
1980-11-14 23:40:32.480 ,2,0,0.,24.0,0.,24.0
1980-11-14 23:40:56.480 ,3,1,0.,24.0,0.,24.0
1980-11-14 23:41:20.480 ,3,0,0.,24.0,0.,24.0
1980-11-14 23:41:44.480 ,4,1,0.,24.0,0.,24.0
1980-11-14 23:42:08.480 ,4,0,0.,24.0,0.,24.0
1980-11-14 23:42:32.480 ,5,1,0.,24.0,0.,24.0
1980-11-14 23:42:56.480 ,5,0,0.,24.0,0.,24.0
1980-11-14 23:43:20.480 ,6,1,0.,24.0,0.,24.0
1980-11-14 23:43:44.480 ,6,0,0.,24.0,0.,24.0
1980-11-14 23:44:08.480 ,7,1,0.,24.0,0.,24.0
1980-11-14 23:44:32.480 ,7,0,0.,24.0,0.,24.0
1980-11-14 23:44:56.480 ,7,1,0.,24.0,0.,24.0
1980-11-14 23:45:20.480 ,7,0,0.,24.0,0.,24.0
1980-11-14 23:45:44.480 ,6,1,0.,24.0,0.,24.0
1980-11-14 23:46:08.480 ,6,0,0.,24.0,0.,24.0
1980-11-14 23:46:32.480 ,5,1,0.,24.0,0.,24.0
1980-11-14 23:46:56.480 ,5,0,0.,24.0,0.,24.0
1980-11-14 23:47:20.480 ,4,1,0.,24.0,0.,24.0
1980-11-14 23:47:44.480 ,4,0,0.,24.0,0.,24.0
1980-11-14 23:48:08.480 ,3,1,0.,24.0,0.,24.0
1980-11-14 23:48:32.480 ,3,0,0.,24.0,0.,24.0
1980-11-14 23:48:56.480 ,2,1,0.,24.0,0.,24.0
1980-11-14 23:49:20.480 ,2,0,0.,24.0,0.,24.0
1980-11-14 23:49:44.480 ,1,1,0.,24.0,0.,24.0
1980-11-14 23:50:08.480 ,1,0,0.,24.0,0.,24.0
1980-11-14 23:50:32.480 ,0,1,0.,24.0,0.,24.0
1980-11-14 23:50:56.480 ,0,0,0.,24.0,0.,24.0
1980-11-14 23:51:20.480 ,0,1,0.,24.0,0.,24.0
1980-11-14 23:51:44.480 ,0,0,0.,24.0,0.,24.0
1980-11-14 23:52:08.480 ,1,1,0.,24.0,0.,24.0
1980-11-14 23:52:32.480 ,1,0,0.,24.0,0.,24.0
1980-11-14 23:52:56.480 ,2,1,0.,24.0,0.,24.0
1980-11-14 23:53:20.480 ,2,0,0.,24.0,0.,24.0
1980-11-14 23:53:44.480 ,3,1,0.,24.0,0.,24.0
1980-11-14 23:54:08.480 ,3,0,0.,24.0,0.,24.0
1980-11-14 23:54:32.480 ,4,1,0.,24.0,0.,24.0
1980-11-14 23:54:56.480 ,4,0,0.,24.0,0.,24.0
1980-11-14 23:55:20.480 ,5,1,0.,24.0,0.,24.0
1980-11-14 23:55:44.480 ,5,0,0.,24.0,0.,24.0
1980-11-14 23:56:08.480 ,6,1,0.,24.0,0.,24.0
1980-11-14 23:56:32.480 ,6,0,0.,24.0,0.,24.0
1980-11-14 23:56:56.480 ,7,1,0.,24.0,0.,24.0
1980-11-14 23:57:20.480 ,7,0,0.,24.0,0.,24.0
1980-11-14 23:57:44.480 ,7,1,0.,24.0,0.,24.0
1980-11-14 23:58:08.480 ,7,0,0.,24.0,0.,24.0
1980-11-14 23:58:32.480 ,6,1,0.,24.0,0.,24.0
1980-11-14 23:58:56.480 ,6,0,0.,24.0,0.,24.0
1980-11-14 23:59:20.480 ,5,1,0.,24.0,0.,24.0
1980-11-14 23:59:44.480 ,5,0,0.,24.0,0.,24.0
1980-11-15 00:00:08.480 ,4,1,0.,24.0,0.,24.0
